| time (UTC) | temp F | wind direction | speed MPH | gust MPH | rain 1hr in | rain 24hr in | rain mn in | humidity % | barometer mb |
| 20260502221515 | 87 | 116 | 4.0 | 11.0 | 0.00 | 0.00 | 0.00 | 16 | 1005.2 |
| 20260502220021 | 86 | 110 | 3.0 | 6.0 | 0.00 | 0.00 | 0.00 | 17 | 1005.4 |
| 20260502214509 | 85 | 98 | 2.0 | 5.0 | 0.00 | 0.00 | 0.00 | 18 | 1005.8 |
| 20260502213021 | 86 | 129 | 1.0 | 8.0 | 0.00 | 0.00 | 0.00 | 18 | 1005.9 |
| 20260502211507 | 84 | 139 | 2.0 | 6.0 | 0.00 | 0.00 | 0.00 | 19 | 1006.1 |
| 20260502210006 | 85 | 116 | 3.0 | 16.0 | 0.00 | 0.00 | 0.00 | 20 | 1006.2 |
| 20260502204503 | 84 | 248 | 2.0 | 8.0 | 0.00 | 0.00 | 0.00 | 19 | 1006.4 |
| 20260502203002 | 86 | 97 | 3.0 | 9.0 | 0.00 | 0.00 | 0.00 | 18 | 1006.6 |
| 20260502201501 | 87 | 317 | 1.0 | 6.0 | 0.00 | 0.00 | 0.00 | 17 | 1006.8 |
| 20260502200101 | 87 | 322 | 1.0 | 4.0 | 0.00 | 0.00 | 0.00 | 17 | 1007.1 |
| 20260502194559 | 87 | 309 | 1.0 | 6.0 | 0.00 | 0.00 | 0.00 | 16 | 1007.4 |
| 20260502193056 | 85 | 101 | 5.0 | 12.0 | 0.00 | 0.00 | 0.00 | 19 | 1007.3 |
| 20260502191610 | 85 | 110 | 1.0 | 8.0 | 0.00 | 0.00 | 0.00 | 20 | 1007.5 |
| 20260502190105 | 84 | 112 | 4.0 | 10.0 | 0.00 | 0.00 | 0.00 | 23 | 1007.8 |
| 20260502184549 | 83 | 54 | 3.0 | 10.0 | 0.00 | 0.00 | 0.00 | 22 | 1008.1 |
| 20260502183057 | 82 | 82 | 6.0 | 12.0 | 0.00 | 0.00 | 0.00 | 24 | 1008.4 |
| 20260502181544 | 80 | 86 | 7.0 | 15.0 | 0.00 | 0.00 | 0.00 | 27 | 1008.6 |
| 20260502163048 | 76 | 109 | 8.0 | 17.0 | 0.00 | 0.00 | 0.00 | 32 | 1009.0 |
| 20260502161528 | 75 | 94 | 5.0 | 12.0 | 0.00 | 0.00 | 0.00 | 34 | 1008.8 |
| 20260502160128 | 75 | 74 | 4.0 | 15.0 | 0.00 | 0.00 | 0.00 | 35 | 1008.9 |
| 20260502151518 | 72 | 92 | 7.0 | 16.0 | 0.00 | 0.00 | 0.00 | 36 | 1008.6 |
| 20260502130105 | 68 | 103 | 3.0 | 12.0 | 0.00 | 0.00 | 0.00 | 36 | 1007.0 |
| 20260502123058 | 67 | 116 | 4.0 | 14.0 | 0.00 | 0.00 | 0.00 | 39 | 1006.8 |
| 20260502121549 | 65 | 63 | 1.0 | 9.0 | 0.00 | 0.00 | 0.00 | 39 | 1006.7 |
| 20260502114549 | 61 | 323 | 0.0 | 0.0 | 0.00 | 0.00 | 0.00 | 35 | 1006.9 |
| 20260502113048 | 60 | 314 | 1.0 | 3.0 | 0.00 | 0.00 | 0.00 | 37 | 1007.0 |
| 20260502111546 | 61 | 131 | 0.0 | 4.0 | 0.00 | 0.00 | 0.00 | 37 | 1007.2 |
| 20260502110042 | 62 | 94 | 0.0 | 2.0 | 0.00 | 0.00 | 0.00 | 38 | 1007.1 |
| 20260502104539 | 62 | 349 | 0.0 | 1.0 | 0.00 | 0.00 | 0.00 | 37 | 1006.9 |
| 20260502103038 | 61 | 349 | 0.0 | 1.0 | 0.00 | 0.00 | 0.00 | 35 | 1006.9 |
| 20260502101536 | 61 | 339 | 0.0 | 0.0 | 0.00 | 0.00 | 0.00 | 38 | 1006.8 |
| 20260502091533 | 64 | 339 | 0.0 | 2.0 | 0.00 | 0.00 | 0.00 | 36 | 1006.9 |
| 20260502071515 | 67 | 91 | 0.0 | 1.0 | 0.00 | 0.00 | 0.00 | 33 | 1006.9 |
| 20260502070014 | 66 | 91 | 0.0 | 1.0 | 0.00 | 0.00 | 0.00 | 37 | 1007.0 |
| 20260502064523 | 68 | 91 | 0.0 | 1.0 | 0.00 | 0.00 | 0.00 | 36 | 1006.9 |
| 20260502063011 | 71 | 94 | 0.0 | 2.0 | 0.00 | 0.00 | 0.00 | 29 | 1006.7 |
| 20260502061511 | 70 | 91 | 0.0 | 2.0 | 0.00 | 0.00 | 0.00 | 27 | 1006.5 |
| 20260502060013 | 71 | 95 | 0.0 | 3.0 | 0.00 | 0.00 | 0.00 | 27 | 1006.4 |
| 20260502054509 | 71 | 78 | 0.0 | 5.0 | 0.00 | 0.00 | 0.00 | 27 | 1006.3 |
| 20260502053009 | 74 | 326 | 0.0 | 6.0 | 0.00 | 0.00 | 0.00 | 25 | 1006.2 |
| 20260502051515 | 75 | 334 | 2.0 | 5.0 | 0.00 | 0.00 | 0.00 | 24 | 1006.0 |
| 20260502050010 | 75 | 313 | 3.0 | 7.0 | 0.00 | 0.00 | 0.00 | 24 | 1006.0 |
| 20260502044507 | 75 | 328 | 2.0 | 7.0 | 0.00 | 0.00 | 0.00 | 23 | 1005.9 |
| 20260502043007 | 75 | 323 | 2.0 | 6.0 | 0.00 | 0.00 | 0.00 | 24 | 1005.9 |
| 20260502041506 | 75 | 350 | 3.0 | 9.0 | 0.00 | 0.00 | 0.00 | 24 | 1005.8 |
| 20260502040007 | 73 | 344 | 0.0 | 3.0 | 0.00 | 0.00 | 0.00 | 26 | 1005.7 |
| 20260502034505 | 74 | 310 | 0.0 | 3.0 | 0.00 | 0.00 | 0.00 | 25 | 1005.4 |
| 20260502033012 | 74 | 297 | 0.0 | 1.0 | 0.00 | 0.00 | 0.00 | 25 | 1005.4 |
| 20260502031504 | 74 | 296 | 0.0 | 3.0 | 0.00 | 0.00 | 0.00 | 23 | 1005.1 |
| 20260502030004 | 75 | 304 | 0.0 | 5.0 | 0.00 | 0.00 | 0.00 | 22 | 1005.0 |
| 20260502024510 | 76 | 330 | 1.0 | 3.0 | 0.00 | 0.00 | 0.00 | 21 | 1004.7 |
| 20260502023002 | 77 | 325 | 2.0 | 6.0 | 0.00 | 0.00 | 0.00 | 21 | 1004.6 |
| 20260502021502 | 78 | 316 | 3.0 | 7.0 | 0.00 | 0.00 | 0.00 | 20 | 1004.4 |
| 20260502020001 | 79 | 328 | 4.0 | 8.0 | 0.00 | 0.00 | 0.00 | 20 | 1004.3 |
| 20260502014604 | 80 | 326 | 2.0 | 9.0 | 0.00 | 0.00 | 0.00 | 19 | 1004.2 |
| 20260502013102 | 81 | 293 | 3.0 | 8.0 | 0.00 | 0.00 | 0.00 | 18 | 1004.0 |
| 20260502011558 | 81 | 301 | 4.0 | 8.0 | 0.00 | 0.00 | 0.00 | 17 | 1004.0 |
| 20260502004604 | 82 | 276 | 3.0 | 9.0 | 0.00 | 0.00 | 0.00 | 19 | 1003.6 |
| 20260502003056 | 83 | 236 | 4.0 | 11.0 | 0.00 | 0.00 | 0.00 | 19 | 1003.7 |
| 20260502001556 | 83 | 339 | 6.0 | 11.0 | 0.00 | 0.00 | 0.00 | 18 | 1003.7 |
| 20260502000106 | 83 | 335 | 7.0 | 14.0 | 0.00 | 0.00 | 0.00 | 18 | 1003.7 |
| 20260501234554 | 83 | 293 | 5.0 | 15.0 | 0.00 | 0.00 | 0.00 | 19 | 1003.6 |
| 20260501233053 | 84 | 311 | 4.0 | 10.0 | 0.00 | 0.00 | 0.00 | 18 | 1003.7 |
| 20260501231553 | 84 | 315 | 4.0 | 9.0 | 0.00 | 0.00 | 0.00 | 17 | 1003.7 |
| 20260501230055 | 84 | 268 | 2.0 | 10.0 | 0.00 | 0.00 | 0.00 | 18 | 1003.6 |
| 20260501224551 | 83 | 331 | 3.0 | 11.0 | 0.00 | 0.00 | 0.00 | 19 | 1003.8 |
| 20260501223048 | 83 | 332 | 7.0 | 15.0 | 0.00 | 0.00 | 0.00 | 19 | 1003.9 |